Regional Weather Roundup
Issued by NWS

Home | Current Version | Previous Version | Graphics & Text | Print | Product List | Glossary On
Versions: 1 2 3 4 5 6 7 8 9 10 11 12 13 14 15 16 17 18 19 20 21 22 23 24 25 26 27 28 29 30 31 32 33 34 35 36 37 38 39 40 41 42 43 44 45 46 47 48 49 50
000
ASUS43 KDTX 011610
RWRMI
MICHIGAN HOURLY REGIONAL WEATHER ROUNDUP
NATIONAL WEATHER SERVICE DETROIT/PONTIAC MI
1100 AM EST SUN FEB 01 2015

NOTE: "FAIR" INDICATES FEW OR NO CLOUDS BELOW 12,000 FEET WITH NO
SIGNIFICANT WEATHER AND/OR OBSTRUCTION TO VISIBILITY.

MIZ047>049-052>055-059>063-066>070-074>076-081>083-011700-
SOUTHEAST LOWER MICHIGAN

CITY           SKY/WX    TMP DP  RH WIND       PRES   REMARKS
ADRIAN         LGT SNOW  24  21  88 E21G28    30.04F FOG     WCI   9
ALMA           LGT SNOW  15  13  90 NE13G18   30.16S WCI   2
ANN ARBOR      SNOW      23  19  85 E10       30.07F VSB 1/2 WCI  12
BAD AXE        LGT SNOW  15  11  83 NE12G18   30.20F WCI   2
CARO           LGT SNOW  16  12  84 NE10G18   30.17S VSB 3/4 WCI   4
DETROIT CITY   LGT SNOW  23  18  81 NE14G20   30.13F VSB 3/4 WCI  11
DETROIT        SNOW      24  21  88 NE10      30.10F VSB 1/2 WCI  14
FLINT          SNOW      20  15  81 NE15      30.13F VSB 1/2 WCI   6
GROSSE ILE     LGT SNOW  25  21  86 NE13      30.09F WCI  13
HILLSDALE      LGT SNOW  24  22  91 E14       29.98F VSB 3/4 WCI  12
HOWELL         LGT SNOW  20  18  89 NE16G22   30.08F VSB 3/4 WCI   6

CITY           SKY/WX    TMP DP  RH WIND       PRES   REMARKS
JACKSON        SNOW      22  19  89 E10G16    30.02F VSB 1/4 WCI  11
LAMBERTVILLE   LGT SNOW  28  23  80 E10G16    30.05F WCI  19
LANSING        SNOW      19  15  84 NE12      30.09F VSB 1/4 WCI   7
LAPEER         LGT SNOW  17  13  84 E7        30.15F VSB 3/4 WCI   8
MASON          LGT SNOW  20  17  87 NE12      30.07F VSB 3/4 WCI   8
MONROE         LGT SNOW  25  23  93 NE13G20   30.06F WCI  13
MT. CLEMENS    LGT SNOW  21  18  86 NE13      30.12S FOG     WCI   9
PONTIAC        SNOW      20  16  84 NE16      30.09F VSB 1/2 WCI   6
PORT HOPE        N/A     16  10  77 NE18      30.22F WCI   0
PORT HURON     LGT SNOW  19  16  86 NE10      30.16F WCI   8
TRI CITIES     SNOW      17  11  77 NE18      30.18F VSB 1/2 WCI   1
TROY           LGT SNOW  23  19  84 NE13      30.14F VSB 3/4 WCI  12
SAGINAW HB     LGT SNOW  18  14  86 NE20      30.17F WCI   1
$$
MIZ043>046-050>051-056>058-064>065-071>073-077>080-011700-
SOUTHWEST LOWER MICHIGAN

CITY           SKY/WX    TMP DP  RH WIND       PRES   REMARKS
BATTLE CREEK   SNOW      22  17  81 NE15G23   30.01F VSB 1/2 WCI   9
BENTON HARBOR  SNOW      23  22  96 E12G21    29.96F VSB 1/2 WCI  12
BIG RAPIDS     LGT SNOW  13  10  89 E13G23    30.14S VSB 3/4 WCI  -1
COLDWATER      SNOW      26  24  91 E13       29.98F VSB 1/2 WCI  15
FREMONT        LGT SNOW  15  11  82 E17       30.11F WCI  -1
HOLLAND        SNOW      20  14  77 E15G24    30.05F VSB 1/2 WCI   6
GRAND RAPIDS   LGT SNOW  17  13  84 E20       30.08F VSB 3/4 WCI   1
IONIA          LGT SNOW  18  15  86 NE17G23   30.09F VSB 3/4 WCI   3
KALAMAZOO      SNOW      22  18  85 NE13      30.00F VSB 1/4 WCI  10
LUDINGTON      LGT SNOW  16  10  80 E12       30.16S WCI   2
MARSHALL       LGT SNOW  22  19  89 NE8G20    30.00F VSB 3/4 WCI  12
MOUNT PLEASANT LGT SNOW  14  10  83 NE12      30.17S VSB 1   WCI   0
MUSKEGON       SNOW      18  13  80 E20G26    30.09F VSB 1/2 WCI   2
SOUTH HAVEN    SNOW      22  19  86 E15G24    29.98F VSB 1/2 WCI   9
$$
MIZ016>042-011700-
NORTHERN LOWER MICHIGAN

CITY           SKY/WX    TMP DP  RH WIND       PRES   REMARKS
ALPENA         LGT SNOW   7   1  76 E12       30.31S WCI  -8
BEAVER ISLAND  CLOUDY    -2  -8  78 NE9G17    30.33F WCI -18
BELLAIRE       CLOUDY    10   1  67 E8        30.29R WCI  -3
CADILLAC       CLOUDY     9   3  76 E15G21    30.14S HAZE    WCI  -8
CHARLEVOIX     CLOUDY     6   0  78 NE13      30.32S WCI -11
FRANKFORT      CLOUDY    12   5  73 NE12      30.23S WCI  -2
GAYLORD        CLOUDY     4  -1  80 NE8       30.21F WCI  -9
GRAYLING       CLOUDY     8   2  76 NE12      30.21F WCI  -7
HARBOR SPRINGS CLOUDY     5  -2  73 NE13G18   30.29S WCI -12
HOUGHTON LAKE  CLOUDY     9   2  73 NE14      30.19F WCI  -7
MANISTEE       CLOUDY    12   7  79 E13G20    30.18F WCI  -3
OSCODA         LGT SNOW  12   7  81 NE17      30.26F WCI  -5
PELLSTON       CLOUDY     4  -2  76 NE15      30.32F HAZE    WCI -14
TRAVERSE CITY  CLOUDY    11   2  67 E8        30.25R WCI  -1
$$
MIZ007>008-015-011700-
EASTERN UPPER MICHIGAN

CITY           SKY/WX    TMP DP  RH WIND       PRES   REMARKS
KINROSS        PTSUNNY   -8 -17  65 E8        30.37S WCI -23
MACKINAC ISLAN CLOUDY    -3 -10  74 NE13G21   30.34F WCI -22
NEWBERRY       PTSUNNY   -6 -12  74 NE7       30.35S WCI -20
S. S. MARIE    MOSUNNY   -8 -19  58 VRB3      30.38F
MUNISING         N/A      8  -1  66 E9        30.36R WCI  -5
$$
MIZ004>006-011>014-085-011700-
CENTRAL UPPER MICHIGAN

CITY           SKY/WX    TMP DP  RH WIND       PRES   REMARKS
MANISTIQUE     CLOUDY     0 -12  56 NE8       30.34F WCI -14
ESCANABA       CLOUDY     5  -2  72 NE9G20    30.33S WCI  -9
MENOMINEE      CLOUDY     9   0  66 NE21G29   30.29R WCI -11
SAWYER-GWINN   LGT SNOW   9   3  78 NE10G17   30.28R VSB 1   WCI  -6
$$
MIZ001>003-009>011-084-011700-
WESTERN UPPER MICHIGAN

CITY           SKY/WX    TMP DP  RH WIND       PRES   REMARKS
IRON MOUNTAIN  MIX PCPN  10   1  67 NE15G24   30.25S WCI  -7
HOUGHTON       CLOUDY     7   0  73 E7        30.34R HAZE    WCI  -5
COPPER HARBOR    N/A     10   1  67 E13       30.39R WCI  -5
IRONWOOD       CLOUDY     9   1  72 NE10G18   30.27F WCI  -6
$$

ABBREVIATIONS USED IN REMARKS
   TC - TEMPERATURE IN CELSIUS
  WCI - WIND CHILL INDEX
   HX - HEAT INDEX
  VSB - VISIBILITY



USA.gov is the U.S. government's official web portal to all federal, state and local government web resources and services.